Weather History for Harlan, KY

Change the Weather History Date:

Sunday, April 27, 2014

  Actual Average (KLOZ) Record (KLOZ)
Temperature  
Mean Temperature 63 °F 60 °F  
Max Temperature 82 °F 72 °F 90 °F (1986)
Min Temperature 44 °F 48 °F 32 °F (1972)
Degree Days  
Heating Degree Days 2 6  
Month to date heating degree days 258  
Since 1 July heating degree days 4083  
Cooling Degree Days 0 1  
Month to date cooling degree days 19  
Year to date cooling degree days 22  
Growing Degree Days 13 (Base 50)    
Moisture  
Dew Point 45 °F    
Average Humidity 56    
Maximum Humidity 93    
Minimum Humidity 20    
Precipitation  
Precipitation 0.00 in 0.15 in 2.57 in (2011)
Month to date precipitation 3.64  
Year to date precipitation 14.94  
Sea Level Pressure  
Sea Level Pressure 29.96 in    
Wind  
Wind Speed 3 mph (ESE)    
Max Wind Speed 13 mph    
Max Gust Speed 22 mph    
Visibility 10 miles    
Events      
T = Trace of Precipitation, MM = Missing Value Source: NWS Daily Summary

Daily Weather History Graph

Daily Weather History Graph

Search for Another Location

Airport:

Trip Planner

Search our weather history database for the weather conditions in past years. The results will help you decide how hot, cold, wet, or windy it might be!

Date:

Astronomy

Apr. 27, 2014 Rise Set
Actual Time 6:44 AM EDT 8:18 PM EDT
Civil Twilight 6:16 AM EDT 8:46 PM EDT
Nautical Twilight 5:43 AM EDT 9:19 PM EDT
Astronomical Twilight 5:08 AM EDT 9:54 PM EDT
Moon 5:40 AM EDT (4/27) 6:53 PM EDT (4/27)
Length of Visible Light 14h 29m
Length of Day
13h 34m
Waning Crescent, 3% of the Moon is Illuminated
Apr 27
Waning Crescent
Apr 29
New
May 6
First Quarter
May 14
Full
May 21
Last Quarter

Hourly Weather History & Observations

Time (EDT) Temp. Windchill Dew Point Humidity Pressure Visibility Wind Dir Wind Speed Gust Speed Precip Events Conditions
12:15 AM 53.6 °F - 44.6 °F 72% 29.99 in 10.0 mi East 8.1 mph - N/A   Clear
12:35 AM 51.8 °F - 44.6 °F 76% 29.99 in 10.0 mi East 8.1 mph - N/A   Clear
12:55 AM 53.6 °F - 44.6 °F 72% 29.99 in 10.0 mi East 4.6 mph - N/A   Clear
1:15 AM 51.8 °F - 44.6 °F 76% 29.99 in 10.0 mi East 4.6 mph - N/A   Clear
1:35 AM 50.0 °F - 44.6 °F 82% 29.99 in 10.0 mi Calm Calm - N/A   Clear
2:15 AM 50.0 °F - 44.6 °F 82% 29.99 in 10.0 mi East 9.2 mph - N/A   Clear
2:35 AM 48.2 °F - 44.6 °F 87% 29.99 in 10.0 mi ESE 5.8 mph - N/A   Clear
2:55 AM 50.0 °F - 44.6 °F 82% 29.99 in 10.0 mi East 4.6 mph - N/A   Clear
3:15 AM 50.0 °F - 44.6 °F 82% 29.99 in 10.0 mi Calm Calm - N/A   Clear
3:35 AM 48.2 °F - 44.6 °F 87% 29.99 in 10.0 mi Calm Calm - N/A   Clear
3:55 AM 48.2 °F - 44.6 °F 87% 29.99 in 10.0 mi Calm Calm - N/A   Clear
4:15 AM 46.4 °F 45.2 °F 44.6 °F 93% 29.99 in 10.0 mi SE 3.5 mph - N/A   Clear
4:35 AM 46.4 °F - 44.6 °F 93% 29.99 in 10.0 mi Calm Calm - N/A   Clear
4:55 AM 46.4 °F - 42.8 °F 87% 29.99 in 10.0 mi Calm Calm - N/A   Clear
5:15 AM 44.6 °F - 42.8 °F 93% 29.99 in 10.0 mi Calm Calm - N/A   Clear
5:35 AM 44.6 °F - 42.8 °F 93% 29.99 in 10.0 mi Calm Calm - N/A   Clear
5:55 AM 44.6 °F - 42.8 °F 93% 30.01 in 10.0 mi Calm Calm - N/A   Clear
6:15 AM 44.6 °F - 42.8 °F 93% 30.01 in 10.0 mi Calm Calm - N/A   Clear
6:35 AM 44.6 °F - 42.8 °F 93% 30.02 in 10.0 mi Calm Calm - N/A   Clear
6:55 AM 44.6 °F - 42.8 °F 93% 30.03 in 10.0 mi Calm Calm - N/A   Clear
7:15 AM 44.6 °F - 42.8 °F 93% 30.03 in 10.0 mi Calm Calm - N/A   Clear
7:35 AM 46.4 °F - 44.6 °F 93% 30.03 in 10.0 mi Calm Calm - N/A   Clear
7:55 AM 46.4 °F - 44.6 °F 93% 30.04 in 10.0 mi Calm Calm - N/A   Clear
8:15 AM 48.2 °F - 44.6 °F 87% 30.04 in 10.0 mi Calm Calm - N/A   Clear
8:35 AM 50.0 °F - 44.6 °F 82% 30.04 in 10.0 mi SE 3.5 mph - N/A   Clear
8:55 AM 53.6 °F - 44.6 °F 72% 30.04 in 10.0 mi Calm Calm - N/A   Clear
9:15 AM 55.4 °F - 46.4 °F 72% 30.04 in 10.0 mi NE 5.8 mph - N/A   Clear
9:35 AM 59.0 °F - 44.6 °F 59% 30.03 in 10.0 mi North - - N/A   Clear
9:55 AM 60.8 °F - 44.6 °F 55% 30.03 in 10.0 mi Calm Calm - N/A   Clear
10:15 AM 64.4 °F - 46.4 °F 52% 30.03 in 10.0 mi Calm Calm - N/A   Clear
10:35 AM 66.2 °F - 44.6 °F 46% 30.02 in 10.0 mi Calm Calm - N/A   Clear
10:55 AM 69.8 °F - 44.6 °F 40% 30.02 in 10.0 mi Calm Calm - N/A   Clear
11:15 AM 73.4 °F - 44.6 °F 36% 30.01 in 10.0 mi Calm Calm - N/A   Clear
11:35 AM 75.2 °F - 42.8 °F 31% 30.01 in 10.0 mi East 3.5 mph - N/A   Clear
11:55 AM 77.0 °F - 42.8 °F 29% 29.99 in 10.0 mi ENE 5.8 mph - N/A   Clear
12:15 PM 77.0 °F - 44.6 °F 32% 29.98 in 10.0 mi NNE 4.6 mph - N/A   Clear
12:35 PM 77.0 °F - 42.8 °F 29% 29.97 in 10.0 mi Calm Calm - N/A   Clear
12:55 PM 78.8 °F - 44.6 °F 30% 29.96 in 10.0 mi East 5.8 mph - N/A   Clear
1:35 PM 80.6 °F - 44.6 °F 28% 29.94 in 10.0 mi Calm Calm - N/A   Clear
1:55 PM 80.6 °F - 41.0 °F 24% 29.94 in 10.0 mi East 5.8 mph - N/A   Clear
2:15 PM 82.4 °F - 41.0 °F 23% 29.93 in 10.0 mi SE 3.5 mph - N/A   Clear
2:35 PM 82.4 °F - 42.8 °F 25% 29.93 in 10.0 mi ESE 3.5 mph - N/A   Clear
2:55 PM 80.6 °F - 42.8 °F 26% 29.92 in 10.0 mi Calm Calm - N/A   Clear
3:15 PM 82.4 °F - 37.4 °F 20% 29.91 in 10.0 mi SSE 5.8 mph - N/A   Clear
3:35 PM 82.4 °F - 42.8 °F 25% 29.91 in 10.0 mi ESE 5.8 mph - N/A   Clear
3:55 PM 82.4 °F - 41.0 °F 23% 29.90 in 10.0 mi SSE 5.8 mph - N/A   Clear
4:15 PM 80.6 °F - 41.0 °F 24% 29.90 in 10.0 mi SE 3.5 mph - N/A   Clear
4:35 PM 80.6 °F - 37.4 °F 21% 29.89 in 10.0 mi Calm Calm - N/A   Clear
4:55 PM 80.6 °F - 39.2 °F 23% 29.89 in 10.0 mi Calm Calm - N/A   Clear
5:15 PM 80.6 °F - 39.2 °F 23% 29.89 in 10.0 mi Calm Calm - N/A   Clear
5:35 PM 80.6 °F - 39.2 °F 23% 29.89 in 10.0 mi Calm Calm - N/A   Clear
6:15 PM 80.6 °F - 41.0 °F 24% 29.88 in 10.0 mi Calm Calm - N/A   Clear
6:35 PM 78.8 °F - 41.0 °F 26% 29.88 in 10.0 mi Calm Calm - N/A   Clear
6:55 PM 78.8 °F - 42.8 °F 28% 29.87 in 10.0 mi Calm Calm - N/A   Clear
7:15 PM 78.8 °F - 41.0 °F 26% 29.87 in 10.0 mi Calm Calm - N/A   Clear
7:35 PM 77.0 °F - 42.8 °F 29% 29.89 in 10.0 mi Calm Calm - N/A   Clear
7:55 PM 75.2 °F - 44.6 °F 34% 29.90 in 10.0 mi WSW 3.5 mph - N/A   Clear
8:15 PM 73.4 °F - 44.6 °F 36% 29.91 in 10.0 mi Calm Calm - N/A   Clear
8:35 PM 73.4 °F - 46.4 °F 38% 29.92 in 10.0 mi Calm Calm - N/A   Mostly Cloudy
8:55 PM 71.6 °F - 48.2 °F 43% 29.92 in 10.0 mi West 11.5 mph 19.6 mph N/A   Mostly Cloudy
9:15 PM 71.6 °F - 50.0 °F 46% 29.91 in 10.0 mi Calm Calm - N/A   Scattered Clouds
9:35 PM 69.8 °F - 51.8 °F 53% 29.91 in 10.0 mi Calm Calm - N/A   Clear
9:55 PM 69.8 °F - 51.8 °F 53% 29.92 in 7.0 mi SSW 3.5 mph - N/A   Clear
10:15 PM 69.8 °F - 51.8 °F 53% 29.92 in 10.0 mi Calm Calm - N/A   Mostly Cloudy
10:35 PM 69.8 °F - 51.8 °F 53% 29.92 in 10.0 mi North - - N/A   Mostly Cloudy
10:55 PM 69.8 °F - 51.8 °F 53% 29.94 in 10.0 mi WSW 4.6 mph - N/A   Mostly Cloudy
11:15 PM 69.8 °F - 53.6 °F 56% 29.95 in 10.0 mi West 12.7 mph 21.9 mph N/A   Overcast
11:35 PM 64.4 °F - 57.2 °F 77% 29.97 in 10.0 mi West 3.5 mph 16.1 mph N/A   Overcast
11:55 PM 62.6 °F - 59.0 °F 88% 29.96 in 10.0 mi NW 5.8 mph - N/A   Overcast